Theta_e
294 295 296 294 293 293 292 292 290 291 292 295 298 298 298 299 298 296 296 296 297 296 296 296 296 297 298 298 299 299 298 298 298 299 300 300 300 301 303 304 304 305 304 304
293 296 295 292 293 294 294 293 293 293 293 299 300 300 298 297 296 295 295 296 296 296 295 295 295 295 297 297 298 299 298 298 299 299 300 301 302 303 304 304 304 304 303 303
288 293 292 289 293 294 294 296 295 292 296 299 297 297 298 296 295 294 295 295 295 295 294 295 295 296 296 298 299 299 298 298 298 299 298 300 301 301 301 302 303 303 302 302
291 291 284 292 299 298 295 296 298 296 298 298 298 298 298 297 295 295 295 296 295 294 295 295 297 297 298 300 299 298 298 298 299 299 299 300 300 300 300 301 302 301 300 300
290 289 289 291 296 295 295 294 299 298 298 298 297 296 294 296 297 296 297 296 295 295 295 296 297 297 298 298 297 297 296 297 299 300 299 298 298 298 298 299 298 298 299 299
290 287 285 292 298 301 299 291 300 300 299 297 296 292 293 296 297 297 296 296 295 295 295 296 297 298 297 297 296 295 296 297 299 299 298 297 297 298 298 299 298 298 298 299
289 290 293 296 300 301 289 292 301 301 300 297 295 295 296 297 296 296 295 295 296 295 295 296 297 297 295 295 294 296 297 298 298 298 298 298 298 298 298 297 297 297 299 301
291 290 287 301 298 293 299 300 302 300 298 297 296 296 295 295 295 294 294 294 295 295 295 297 297 296 295 294 296 297 297 297 297 298 298 298 298 300 301 302 301 301 303 302
296 297 298 303 300 300 303 302 300 300 298 297 295 294 295 295 294 294 294 294 295 295 295 297 298 297 295 296 297 297 298 297 299 299 302 303 303 302 300 301 299 299 299 299
296 298 299 301 301 302 301 301 300 300 298 297 294 295 295 295 294 294 294 295 296 297 296 295 297 298 297 296 298 299 298 299 301 301 302 302 301 300 299 299 299 299 299 299
295 298 299 301 302 301 300 300 298 298 297 296 295 295 295 294 293 294 295 296 298 297 297 298 300 299 299 299 301 301 300 300 300 300 300 299 300 296 297 297 294 298 298 298
298 303 303 301 303 301 299 298 297 296 296 296 296 296 295 294 294 295 295 296 296 298 299 299 300 300 301 302 301 301 298 298 297 298 298 298 299 298 291 291 290 290 290 293
301 304 301 301 302 301 299 297 297 296 296 296 297 297 295 293 294 296 297 298 299 299 299 300 299 299 301 301 301 299 299 298 298 297 297 297 298 297 299 294 291 290 289 289
303 302 299 300 299 299 298 298 297 297 298 298 298 296 295 294 295 296 298 299 300 300 300 300 300 299 301 301 300 300 300 292 298 298 297 297 298 298 297 296 295 295 291 290
302 302 303 302 300 298 298 297 296 296 297 297 298 296 294 294 295 297 300 300 300 300 300 300 300 301 302 302 300 300 299 299 298 298 297 296 298 297 297 297 296 296 296 293
300 300 300 299 298 297 296 295 295 295 296 297 297 295 294 296 296 298 300 300 300 300 300 301 301 301 302 303 302 301 300 293 294 298 298 298 297 296 296 296 295 294 293 293
299 297 298 297 296 296 295 296 297 297 297 297 295 294 295 295 296 297 300 301 301 301 301 301 301 302 302 302 302 304 302 302 290 299 298 298 297 296 296 295 294 294 293 290
304 304 302 301 297 296 295 296 297 296 297 298 296 295 295 295 295 298 300 300 300 301 302 303 302 302 302 302 302 303 303 301 300 299 299 298 298 298 297 297 296 295 295 293
302 301 300 299 299 297 297 297 298 299 299 298 296 294 295 296 297 298 301 300 300 300 302 303 297 300 304 301 298 302 301 301 300 300 299 294 299 298 297 297 296 296 296 296
299 300 299 298 298 297 298 299 299 299 299 299 298 295 294 295 296 298 301 300 302 304 304 303 303 304 304 302 294 302 301 301 300 300 300 300 299 298 298 292 296 297 297 296
298 298 297 297 297 298 300 300 300 298 299 298 296 296 296 296 297 298 298 299 303 302 303 298 303 304 303 297 300 302 302 301 301 301 300 300 300 300 299 298 298 298 297 297
298 297 297 298 298 298 300 301 302 300 299 298 297 296 295 295 296 297 298 302 303 292 301 305 305 292 297 287 302 302 302 301 301 302 301 300 300 300 300 299 299 299 299 298
298 298 298 298 298 299 300 301 301 301 299 298 296 295 295 296 298 299 297 303 304 299 304 305 292 287 286 303 303 303 302 301 300 301 301 301 301 301 300 300 300 301 300 300
298 299 299 301 300 299 299 300 301 301 301 299 298 297 297 295 297 300 300 296 292 295 302 303 296 286 286 303 303 303 302 301 301 302 302 291 301 301 301 301 301 302 302 298
300 300 300 299 299 298 298 300 301 300 300 298 297 297 298 299 298 299 301 304 293 296 305 292 288 287 303 303 302 302 301 302 301 301 302 301 300 301 301 301 301 301 302 302
300 299 299 298 298 299 298 298 299 300 298 297 296 298 298 299 300 301 304 299 304 298 304 304 304 303 302 301 301 301 301 301 301 301 299 301 301 300 300 300 300 301 302 302
300 296 298 297 297 297 299 299 300 299 298 297 297 298 298 301 301 301 298 304 304 302 302 302 302 298 301 301 301 301 302 301 294 301 302 301 301 301 301 302 302 303 303 303
Wind_Speed
2 1 1 1 3 3 2 1 3 2 1 5 8 2 3 6 8 9 11 12 12 12 11 12 12 13 14 14 15 13 12 11 9 10 12 12 12 12 12 9 8 7 9 9
2 2 1 2 3 5 4 4 5 3 3 4 3 1 4 6 7 9 12 12 12 12 12 11 13 13 13 13 13 12 12 12 10 10 11 11 11 11 9 9 9 9 9 9
2 1 1 5 4 2 2 2 1 2 4 7 4 3 6 7 6 10 11 12 12 11 10 10 11 12 11 13 11 13 12 11 10 9 10 11 10 10 10 10 10 10 10 10
1 2 4 3 2 3 2 2 4 3 5 3 1 2 7 2 6 10 11 12 11 9 9 9 10 11 12 12 12 12 11 11 10 9 10 10 10 9 9 8 10 9 9 10
2 2 3 3 5 5 4 3 9 5 5 2 1 4 4 2 7 7 8 9 8 8 8 9 10 10 11 10 10 10 10 11 11 11 8 9 10 11 9 8 8 8 7 9
3 2 3 3 5 4 3 3 9 7 5 2 4 5 4 7 8 8 8 7 8 9 8 8 9 8 9 10 9 10 10 10 10 9 9 10 10 9 7 7 8 6 8 8
3 3 3 3 8 7 4 3 8 8 2 3 1 1 5 4 5 7 7 8 8 7 7 8 7 8 7 8 10 9 9 9 9 10 9 9 8 7 7 6 5 6 6 7
3 4 5 11 7 6 3 3 6 5 4 3 1 1 2 3 5 6 7 7 7 6 7 7 6 6 7 7 7 7 8 8 9 9 7 6 6 7 9 7 8 8 8 7
6 2 2 7 1 3 4 6 5 5 5 3 2 1 1 3 4 5 6 6 7 7 7 8 8 7 7 8 7 7 8 9 9 8 9 9 9 10 8 8 8 8 7 8
4 5 4 5 4 4 4 7 8 8 6 5 3 2 2 3 4 5 6 6 6 7 11 10 10 10 9 8 7 9 10 10 9 9 8 8 7 8 8 8 8 7 8 8
2 3 2 6 7 9 8 9 9 7 6 4 4 3 3 4 4 5 5 6 6 8 9 8 9 10 10 9 10 10 9 8 8 7 8 7 8 9 7 9 6 6 7 7
4 8 3 3 13 12 11 8 8 8 6 4 4 4 3 4 4 4 6 5 6 7 7 7 7 7 7 8 7 7 8 7 7 6 6 6 6 7 11 11 15 15 14 10
4 10 8 8 11 10 9 9 8 7 6 6 5 5 4 3 3 5 8 5 5 6 7 7 7 8 6 6 6 7 7 6 5 5 5 5 5 6 5 5 13 15 12 15
10 13 7 8 6 10 9 9 9 6 6 6 6 5 5 4 5 5 7 5 4 5 7 7 9 9 7 5 5 6 5 4 5 5 4 4 5 5 5 6 6 7 11 13
9 3 5 12 13 10 9 9 8 8 7 7 5 5 4 5 5 6 6 5 4 4 6 7 8 8 6 5 4 4 5 6 5 4 5 4 5 5 5 6 6 7 7 7
7 7 10 11 12 11 10 10 9 9 8 6 6 6 5 5 5 5 6 5 4 4 5 6 7 7 7 6 4 1 3 4 3 4 4 5 5 6 6 7 7 8 8 8
12 8 9 10 11 12 11 9 9 9 8 7 7 6 6 6 5 5 6 5 3 3 3 4 5 6 5 5 4 1 2 3 3 4 4 5 5 6 6 6 6 7 7 7
2 6 10 10 13 12 10 9 8 8 8 7 8 7 6 6 6 6 6 5 4 3 1 3 4 6 5 5 3 1 1 2 3 3 3 4 4 4 5 5 6 6 5 6
7 9 9 9 11 11 11 10 9 7 7 8 8 7 6 5 5 6 6 6 5 4 3 3 4 6 5 4 5 2 2 1 1 2 2 2 2 4 4 5 5 5 6 6
9 10 9 11 11 11 10 9 8 7 7 8 7 7 7 6 5 6 6 6 5 1 1 3 6 5 6 5 4 3 3 2 2 2 2 2 2 3 4 4 4 5 5 5
11 11 12 12 11 10 9 8 8 8 8 8 8 7 7 6 6 5 5 5 6 5 4 5 4 4 5 4 2 0 1 0 1 1 2 2 2 2 3 3 4 4 4 4
10 11 12 12 10 10 8 7 7 7 8 8 7 6 7 6 6 5 4 4 4 4 4 3 3 5 5 7 0 1 2 2 1 1 1 0 1 1 2 2 3 2 3 3
10 10 11 10 10 9 8 7 6 8 8 8 8 7 7 5 6 6 5 7 5 5 4 3 3 4 5 1 2 2 2 1 0 1 1 1 2 2 2 3 2 2 1 1
9 9 9 8 7 7 8 8 7 7 8 7 7 7 7 5 5 4 2 4 5 5 4 2 3 4 5 1 2 2 1 1 1 1 1 1 2 2 2 2 2 2 1 2
8 8 8 8 8 6 5 7 7 8 8 7 7 6 7 4 2 5 5 5 5 6 4 2 3 4 2 2 2 3 3 2 3 2 3 3 3 3 3 3 4 3 3 3
7 4 4 6 5 5 6 8 8 8 8 6 5 5 5 4 3 4 6 4 4 2 3 1 2 3 3 3 4 4 4 4 3 3 4 4 4 4 4 4 4 4 4 4
5 3 5 5 4 5 6 9 9 9 7 7 7 6 6 5 4 4 4 4 2 3 4 4 5 5 5 5 6 6 5 6 7 6 6 6 6 6 6 6 5 4 4 4
Wind_Direction
163 328 232 313 311 318 244 47 252 73 278 177 183 223 338 347 352 348 349 348 350 349 346 345 340 342 337 335 335 330 327 326 322 319 320 322 320 324 323 331 335 341 348 348
189 142 342 232 136 99 94 115 105 137 125 152 151 296 319 344 343 343 343 347 349 345 347 343 342 338 331 331 331 334 336 342 339 334 332 333 338 343 352 358 1 1 1 354
226 60 270 246 203 180 133 177 166 261 83 165 198 270 331 338 348 343 340 341 344 347 341 335 335 330 331 332 336 340 347 347 343 339 340 346 353 357 360 3 359 7 3 356
153 196 234 76 327 232 243 165 186 150 161 170 5 338 320 102 350 341 340 340 338 338 330 326 332 335 335 343 349 346 345 340 334 332 343 355 355 354 3 8 12 17 12 13
206 210 327 193 188 174 188 199 198 201 177 147 35 286 120 60 348 344 336 333 332 329 326 327 336 342 338 354 355 353 351 351 354 11 2 16 19 20 18 19 26 28 25 20
163 204 246 87 158 157 158 258 184 193 195 203 4 327 32 336 344 350 348 342 337 335 329 333 341 339 340 354 356 358 356 356 3 12 21 27 21 20 19 25 33 31 31 29
158 225 265 153 144 160 232 45 162 193 163 151 270 327 325 328 355 355 343 346 343 337 333 334 337 343 357 1 8 360 1 13 21 20 26 24 27 28 28 26 19 11 22 36
153 199 241 151 145 214 82 93 147 147 133 159 152 307 310 354 2 358 354 350 347 347 345 360 2 4 12 15 3 9 20 26 31 30 26 19 29 43 42 33 33 23 35 45
195 202 92 169 91 91 129 139 148 142 136 140 136 146 42 19 11 8 10 1 2 9 34 21 23 24 23 19 18 28 41 46 47 49 63 59 46 34 35 32 28 22 23 31
163 172 190 184 111 133 132 121 125 110 135 150 148 146 104 50 34 31 23 23 41 48 52 52 44 39 37 31 36 62 69 64 60 55 46 37 33 26 23 22 19 25 38 40
178 192 211 213 191 154 130 124 117 126 143 150 162 135 90 69 51 42 43 73 68 69 62 56 44 36 32 53 73 68 59 43 35 29 23 25 40 24 21 32 5 10 34 27
209 168 179 110 165 158 148 145 140 146 157 162 151 123 104 94 68 65 93 102 84 62 42 40 44 52 31 25 41 48 51 38 25 25 26 40 61 67 49 50 52 46 37 28
142 138 85 96 136 152 143 144 143 151 158 160 129 120 115 108 85 109 130 131 83 50 44 51 57 58 46 34 38 45 40 24 23 25 34 33 42 54 66 89 78 53 43 43
132 125 113 167 163 156 143 142 144 150 158 151 138 120 116 108 111 127 147 129 90 60 54 59 63 53 39 40 47 45 32 5 10 27 38 43 38 44 46 46 39 42 60 47
149 58 83 126 135 141 141 148 156 164 157 148 141 133 133 132 130 144 154 144 120 72 59 58 60 49 34 34 39 32 21 18 18 42 45 35 35 38 37 39 36 38 40 60
131 112 133 141 150 154 159 168 172 172 167 160 148 144 150 136 139 151 158 171 168 79 46 39 41 19 9 5 357 342 15 23 12 47 48 44 40 37 40 42 44 42 38 26
137 142 154 158 167 169 177 175 179 168 166 171 151 152 153 144 137 158 156 158 166 118 51 14 9 354 355 358 338 323 352 44 31 69 53 48 46 45 44 46 49 49 49 38
150 156 170 172 171 169 169 172 171 164 170 160 149 156 158 158 161 165 165 170 189 185 211 345 340 335 341 353 349 48 71 62 68 55 56 54 53 45 43 46 46 47 50 58
143 139 146 148 162 161 162 167 171 164 154 157 157 166 165 156 159 171 169 184 198 202 185 292 329 309 341 4 315 217 138 147 127 52 35 95 65 48 47 48 48 44 39 38
126 132 135 141 153 159 161 166 164 170 165 166 152 154 153 159 173 171 189 196 205 217 245 303 314 319 327 329 323 242 228 234 286 340 47 104 65 60 71 49 25 39 39 40
142 145 146 152 158 166 165 165 168 169 164 165 167 171 163 161 178 179 191 205 189 210 256 281 301 335 333 331 276 205 245 257 285 118 133 82 113 43 36 32 33 32 37 41
148 152 153 156 163 165 170 167 175 166 169 169 167 159 156 168 180 197 220 229 170 197 252 276 324 23 331 300 223 95 102 96 99 117 88 23 338 335 351 360 7 23 28 31
153 158 160 165 173 177 174 179 178 173 175 169 170 173 176 176 188 191 196 199 217 194 246 274 18 336 320 295 68 67 63 87 306 327 330 326 328 320 318 332 350 344 338 347
154 160 167 169 166 171 183 189 183 178 177 168 172 176 171 168 184 221 217 165 223 229 245 301 334 322 293 72 85 83 88 70 339 352 25 318 336 330 320 312 307 314 297 238
157 160 165 173 184 197 192 177 169 168 163 164 165 172 180 190 192 182 207 194 195 230 251 191 255 255 225 81 62 61 54 41 24 7 17 2 345 335 336 316 309 311 302 276
150 170 187 196 198 187 181 176 180 171 161 161 167 170 169 180 193 197 189 191 183 216 262 332 61 139 106 81 75 58 45 43 22 23 358 358 357 341 338 325 314 303 297 287
119 132 141 139 141 158 171 173 166 166 166 168 162 165 169 167 180 188 178 161 164 138 109 89 87 84 92 84 72 63 56 60 38 17 25 18 9 2 353 345 335 326 313 301